| time (UTC) | temp F | wind direction | speed knots | gust knots | rain 1hr in | rain 24hr in | rain mn in | humidity % | barometer mb |
| 20260503033018 | 47 | 141 | 0.0 | 0.0 | 0.00 | 0.08 | 0.08 | 95 | 1014.7 |
| 20260503031510 | 47 | 141 | 0.0 | 0.0 | 0.00 | 0.08 | 0.08 | 95 | 1014.5 |
| 20260503030010 | 47 | 141 | 0.0 | 0.0 | 0.00 | 0.08 | 0.08 | 95 | 1014.2 |
| 20260503024508 | 48 | 141 | 0.0 | 0.0 | 0.00 | 0.08 | 0.08 | 95 | 1014.1 |
| 20260503023015 | 49 | 141 | 0.0 | 0.0 | 0.00 | 0.08 | 0.08 | 95 | 1014.1 |
| 20260503021520 | 49 | 141 | 0.0 | 0.0 | 0.00 | 0.08 | 0.08 | 95 | 1013.9 |
| 20260503020018 | 50 | 141 | 0.0 | 0.0 | 0.00 | 0.08 | 0.08 | 95 | 1013.9 |
| 20260503014513 | 49 | 141 | 0.0 | 0.0 | 0.00 | 0.08 | 0.08 | 94 | 1014.0 |
| 20260503013033 | 50 | 141 | 0.0 | 0.0 | 0.00 | 0.08 | 0.08 | 94 | 1013.9 |
| 20260503011514 | 50 | 141 | 0.0 | 0.0 | 0.00 | 0.08 | 0.08 | 93 | 1013.7 |
| 20260503010022 | 50 | 141 | 0.0 | 0.0 | 0.00 | 0.08 | 0.08 | 93 | 1013.3 |
| 20260503004521 | 51 | 141 | 0.0 | 0.0 | 0.00 | 0.08 | 0.08 | 92 | 1013.2 |
| 20260503003030 | 52 | 141 | 0.0 | 0.0 | 0.00 | 0.08 | 0.08 | 91 | 1012.9 |
| 20260503001516 | 53 | 141 | 0.0 | 0.0 | 0.00 | 0.08 | 0.08 | 90 | 1012.8 |
| 20260503000019 | 54 | 141 | 0.0 | 0.0 | 0.00 | 0.08 | 0.08 | 88 | 1012.5 |
| 20260502234521 | 54 | 141 | 0.0 | 0.0 | 0.00 | 0.08 | 0.08 | 86 | 1012.2 |
| 20260502233027 | 55 | 141 | 0.0 | 0.0 | 0.00 | 0.08 | 0.08 | 86 | 1012.0 |
| 20260502231528 | 55 | 141 | 0.0 | 0.0 | 0.00 | 0.08 | 0.08 | 87 | 1012.0 |
| 20260502230024 | 55 | 141 | 0.0 | 0.0 | 0.00 | 0.08 | 0.08 | 87 | 1011.9 |
| 20260502224520 | 55 | 141 | 0.0 | 0.0 | 0.00 | 0.08 | 0.08 | 85 | 1011.9 |
| 20260502223025 | 55 | 141 | 0.0 | 0.0 | 0.00 | 0.08 | 0.08 | 86 | 1011.9 |
| 20260502221525 | 55 | 141 | 0.0 | 0.0 | 0.00 | 0.08 | 0.08 | 84 | 1011.8 |
| 20260502220026 | 55 | 141 | 0.0 | 0.0 | 0.00 | 0.08 | 0.08 | 83 | 1011.8 |
| 20260502214525 | 55 | 139 | 0.0 | 0.0 | 0.00 | 0.08 | 0.08 | 82 | 1011.5 |
| 20260502213035 | 55 | 139 | 0.0 | 0.0 | 0.00 | 0.08 | 0.08 | 82 | 1011.5 |
| 20260502211522 | 55 | 139 | 0.0 | 0.0 | 0.00 | 0.08 | 0.08 | 81 | 1011.5 |
| 20260502210024 | 56 | 139 | 0.0 | 0.0 | 0.00 | 0.08 | 0.08 | 80 | 1011.4 |
| 20260502204527 | 56 | 141 | 0.0 | 0.0 | 0.00 | 0.08 | 0.08 | 82 | 1011.5 |
| 20260502203030 | 56 | 139 | 0.0 | 0.0 | 0.00 | 0.08 | 0.08 | 80 | 1011.5 |
| 20260502201534 | 56 | 142 | 0.0 | 0.0 | 0.00 | 0.08 | 0.08 | 79 | 1011.6 |
| 20260502200007 | 57 | 134 | 0.0 | 0.0 | 0.00 | 0.08 | 0.08 | 79 | 1011.4 |
| 20260502194504 | 56 | 144 | 0.0 | 0.0 | 0.00 | 0.08 | 0.08 | 80 | 1011.7 |
| 20260502193005 | 57 | 276 | 0.0 | 0.0 | 0.00 | 0.08 | 0.08 | 82 | 1011.9 |
| 20260502191504 | 56 | 152 | 0.0 | 0.0 | 0.00 | 0.08 | 0.08 | 81 | 1012.2 |
| 20260502190007 | 56 | 146 | 0.0 | 0.0 | 0.00 | 0.08 | 0.08 | 83 | 1012.2 |
| 20260502184509 | 56 | 94 | 0.0 | 0.0 | 0.00 | 0.08 | 0.08 | 84 | 1012.3 |
| 20260502183006 | 56 | 10 | 0.0 | 0.9 | 0.00 | 0.08 | 0.08 | 84 | 1012.4 |
| 20260502181504 | 55 | 126 | 0.0 | 0.0 | 0.00 | 0.08 | 0.08 | 85 | 1012.5 |
| 20260502163005 | 53 | 182 | 0.0 | 0.0 | 0.00 | 0.08 | 0.08 | 92 | 1013.6 |
| 20260502161510 | 53 | 277 | 0.0 | 0.0 | 0.00 | 0.08 | 0.08 | 92 | 1013.9 |
| 20260502151506 | 53 | 232 | 0.0 | 0.0 | 0.02 | 0.08 | 0.08 | 94 | 1013.6 |
| 20260502123017 | 51 | 142 | 0.0 | 0.0 | 0.01 | 0.01 | 0.01 | 94 | 1012.9 |
| 20260502121515 | 51 | 142 | 0.0 | 0.0 | 0.01 | 0.01 | 0.01 | 94 | 1012.5 |
| 20260502114529 | 51 | 142 | 0.0 | 0.0 | 0.00 | 0.00 | 0.00 | 94 | 1012.6 |
| 20260502113012 | 52 | 142 | 0.0 | 0.0 | 0.00 | 0.00 | 0.00 | 93 | 1012.6 |
| 20260502111516 | 52 | 142 | 0.0 | 0.0 | 0.00 | 0.00 | 0.00 | 93 | 1012.7 |
| 20260502110022 | 52 | 142 | 0.0 | 0.0 | 0.00 | 0.00 | 0.00 | 93 | 1012.9 |
| 20260502104524 | 52 | 142 | 0.0 | 0.0 | 0.00 | 0.00 | 0.00 | 92 | 1013.0 |
| 20260502103015 | 52 | 142 | 0.0 | 0.0 | 0.00 | 0.00 | 0.00 | 92 | 1012.8 |
| 20260502101512 | 52 | 142 | 0.0 | 0.0 | 0.00 | 0.00 | 0.00 | 92 | 1013.0 |
| 20260502091520 | 53 | 142 | 0.0 | 0.0 | 0.00 | 0.00 | 0.00 | 91 | 1013.0 |
| 20260502071506 | 52 | 142 | 0.0 | 0.0 | 0.00 | 0.00 | 0.00 | 93 | 1011.8 |
| 20260502070009 | 52 | 142 | 0.0 | 0.0 | 0.00 | 0.00 | 0.00 | 93 | 1011.8 |
| 20260502064508 | 52 | 142 | 0.0 | 0.0 | 0.00 | 0.00 | 0.00 | 92 | 1011.9 |
| 20260502063012 | 53 | 142 | 0.0 | 0.0 | 0.00 | 0.00 | 0.00 | 92 | 1012.1 |
| 20260502061523 | 53 | 142 | 0.0 | 0.0 | 0.00 | 0.00 | 0.00 | 92 | 1012.2 |
| 20260502060016 | 53 | 142 | 0.0 | 0.0 | 0.00 | 0.00 | 0.00 | 92 | 1012.3 |
| 20260502054512 | 53 | 142 | 0.0 | 0.0 | 0.00 | 0.00 | 0.00 | 92 | 1012.3 |
| 20260502053012 | 53 | 142 | 0.0 | 0.0 | 0.00 | 0.00 | 0.00 | 91 | 1012.5 |
| 20260502051507 | 53 | 142 | 0.0 | 0.0 | 0.00 | 0.00 | 0.00 | 91 | 1012.7 |
| 20260502050015 | 53 | 142 | 0.0 | 0.0 | 0.00 | 0.00 | 0.00 | 91 | 1012.8 |
| 20260502044504 | 53 | 142 | 0.0 | 0.0 | 0.00 | 0.00 | 0.00 | 90 | 1013.0 |
| 20260502043012 | 53 | 142 | 0.0 | 0.0 | 0.00 | 0.00 | 0.00 | 90 | 1013.0 |
| 20260502041529 | 53 | 142 | 0.0 | 0.0 | 0.00 | 0.00 | 0.00 | 90 | 1013.1 |
| 20260502040028 | 53 | 142 | 0.0 | 0.0 | 0.00 | 0.00 | 0.00 | 90 | 1013.2 |
| 20260502034509 | 53 | 142 | 0.0 | 0.0 | 0.00 | 0.00 | 0.00 | 90 | 1013.2 |